Weather History for KCIR - February, 2014

Change the Weather History Date:

Tuesday, February 11, 2014

  Actual Average Record
Temperature  
Mean Temperature 19 °F -  
Max Temperature 29 °F 45 °F 67 °F (1984)
Min Temperature 9 °F 29 °F 1 °F (2011)
Degree Days  
Heating Degree Days 46    
Moisture  
Dew Point 4 °F    
Average Humidity 55    
Maximum Humidity 65    
Minimum Humidity 40    
Precipitation  
Precipitation 0.00 in - - ()
Sea Level Pressure  
Sea Level Pressure 30.42 in    
Wind  
Wind Speed 9 mph (NNE)    
Max Wind Speed 12 mph    
Max Gust Speed 16 mph    
Visibility 10 miles    
Events      
Averages and records for this station are not official NWS values.
T = Trace of Precipitation, MM = Missing Value Source: NWS Daily Summary

Daily Weather History Graph

Daily Weather History Graph

Search for Another Location

Airport or City:

Trip Planner

Search our weather history database for the weather conditions in past years. The results will help you decide how hot, cold, wet, or windy it might be!

Date:

Astronomy

Feb. 11, 2014 Rise Set
Actual Time 6:49 AM CST 5:32 PM CST
Civil Twilight 6:23 AM CST 5:59 PM CST
Nautical Twilight 5:52 AM CST 6:30 PM CST
Astronomical Twilight 5:22 AM CST 7:00 PM CST
Moon 2:54 PM CST (2/11) 4:24 AM CST (2/11)
Length of Visible Light 11h 36m
Length of Day
10h 42m
Waxing Gibbous, 91% of the Moon is Illuminated
Feb 11
Waxing Gibbous
Feb 14
Full
Feb 22
Last Quarter
Mar 1
New
Mar 8
First Quarter

Hourly Weather History & Observations

Time (CST) Temp. Windchill Dew Point Humidity Pressure Visibility Wind Dir Wind Speed Gust Speed Precip Events Conditions
12:15 AM 14.0 °F 2.0 °F 3.0 °F 62% 30.44 in 10.0 mi North 9.2 mph - N/A   Clear
12:35 AM 13.8 °F 1.8 °F 3.0 °F 62% 30.44 in 10.0 mi North 9.2 mph - N/A   Clear
12:55 AM 13.5 °F 0.5 °F 2.1 °F 61% 30.43 in 10.0 mi North 10.4 mph - N/A   Clear
1:15 AM 12.9 °F 0.7 °F 2.1 °F 62% 30.44 in 10.0 mi North 9.2 mph - N/A   Clear
1:35 AM 12.7 °F 0.4 °F 2.1 °F 63% 30.45 in 10.0 mi North 9.2 mph - N/A   Clear
1:55 AM 12.2 °F -0.2 °F 1.4 °F 62% 30.44 in 10.0 mi NNE 9.2 mph - N/A   Clear
2:15 AM 12.2 °F -1.0 °F 0.3 °F 59% 30.45 in 10.0 mi North 10.4 mph 16.1 mph N/A   Clear
2:35 AM 11.8 °F -1.5 °F -0.4 °F 58% 30.45 in 10.0 mi NNE 10.4 mph - N/A   Clear
2:55 AM 11.3 °F 0.7 °F -0.6 °F 59% 30.44 in 10.0 mi NNE 6.9 mph - N/A   Clear
3:15 AM 11.1 °F 0.4 °F -0.6 °F 59% 30.45 in 10.0 mi NNE 6.9 mph - N/A   Clear
3:35 AM 10.9 °F 0.2 °F -0.6 °F 60% 30.46 in 10.0 mi North 6.9 mph - N/A   Clear
3:55 AM 10.4 °F -0.4 °F -0.8 °F 61% 30.46 in 10.0 mi North 6.9 mph - N/A   Clear
4:15 AM 10.4 °F 0.8 °F -0.8 °F 61% 30.46 in 10.0 mi North 5.8 mph - N/A   Clear
4:35 AM 10.0 °F -0.9 °F -0.6 °F 62% 30.46 in 10.0 mi North 6.9 mph - N/A   Clear
4:55 AM 10.0 °F -1.9 °F -0.6 °F 62% 30.47 in 10.0 mi North 8.1 mph - N/A   Clear
5:15 AM 10.4 °F -3.3 °F -0.4 °F 62% 30.47 in 10.0 mi North 10.4 mph - N/A   Clear
5:35 AM 10.0 °F -3.7 °F -1.3 °F 60% 30.47 in 10.0 mi NNE 10.4 mph - N/A   Clear
5:55 AM 9.7 °F -4.2 °F -1.3 °F 61% 30.48 in 10.0 mi NNE 10.4 mph - N/A   Clear
6:15 AM 9.5 °F -2.6 °F -1.7 °F 61% 30.48 in 10.0 mi NNE 8.1 mph - N/A   Clear
6:35 AM 9.1 °F -3.0 °F -2.0 °F 61% 30.49 in 10.0 mi NNE 8.1 mph - N/A   Clear
6:55 AM 9.1 °F -4.0 °F -1.8 °F 61% 30.49 in 10.0 mi NNE 9.2 mph - N/A   Clear
7:15 AM 9.0 °F -2.2 °F -1.8 °F 62% 30.49 in 10.0 mi North 6.9 mph - N/A   Clear
7:35 AM 9.1 °F -3.0 °F -1.7 °F 62% 30.50 in 10.0 mi NNE 8.1 mph - N/A   Clear
7:55 AM 10.0 °F -1.9 °F -1.1 °F 61% 30.50 in 10.0 mi NNE 8.1 mph - N/A   Clear
8:15 AM 11.3 °F -0.4 °F -0.4 °F 59% 30.50 in 10.0 mi NNE 8.1 mph - N/A   Clear
8:35 AM 11.3 °F -2.2 °F -0.4 °F 59% 30.51 in 10.0 mi NNE 10.4 mph - N/A   Clear
8:55 AM 12.2 °F -1.0 °F 0.1 °F 59% 30.52 in 10.0 mi NNE 10.4 mph - N/A   Clear
9:15 AM 13.3 °F 2.0 °F 1.2 °F 59% 30.52 in 10.0 mi NNE 8.1 mph - N/A   Clear
9:35 AM 15.3 °F 4.4 °F 2.1 °F 56% 30.50 in 10.0 mi NNE 8.1 mph - N/A   Clear
9:55 AM 15.3 °F 2.0 °F 1.2 °F 54% 30.51 in 10.0 mi NNE 11.5 mph - N/A   Clear
10:15 AM 16.5 °F 6.0 °F 2.1 °F 53% 30.51 in 10.0 mi NNE 8.1 mph - N/A   Clear
10:35 AM 17.4 °F 5.4 °F 2.1 °F 51% 30.50 in 10.0 mi NNE 10.4 mph - N/A   Clear
10:55 AM 18.5 °F 6.8 °F 3.2 °F 51% 30.49 in 10.0 mi NNE 10.4 mph - N/A   Clear
11:15 AM 19.2 °F 8.4 °F 3.7 °F 51% 30.49 in 10.0 mi NNE 9.2 mph - N/A   Clear
11:35 AM 20.1 °F 11.3 °F 4.3 °F 50% 30.49 in 10.0 mi NNE 6.9 mph - N/A   Clear
11:55 AM 21.0 °F 11.4 °F 5.0 °F 50% 30.47 in 10.0 mi NNE 8.1 mph - N/A   Scattered Clouds
12:15 PM 22.6 °F 12.6 °F 5.5 °F 48% 30.46 in 10.0 mi NE 9.2 mph - N/A   Scattered Clouds
12:35 PM 23.7 °F 14.0 °F 7.0 °F 49% 30.45 in 10.0 mi NNE 9.2 mph - N/A   Clear
12:55 PM 24.6 °F 14.4 °F 6.6 °F 46% 30.44 in 10.0 mi NE 10.4 mph - N/A   Clear
1:15 PM 25.3 °F 14.7 °F 6.8 °F 45% 30.42 in 10.0 mi NE 11.5 mph - N/A   Clear
1:35 PM 26.2 °F 16.4 °F 7.5 °F 45% 30.41 in 10.0 mi NNE 10.4 mph - N/A   Clear
1:55 PM 26.6 °F 17.5 °F 7.2 °F 44% 30.40 in 10.0 mi NNE 9.2 mph - N/A   Clear
2:15 PM 27.7 °F 18.2 °F 8.8 °F 45% 30.39 in 10.0 mi NE 10.4 mph - N/A   Clear
2:35 PM 28.2 °F 19.5 °F 8.1 °F 43% 30.39 in 10.0 mi NE 9.2 mph - N/A   Clear
2:55 PM 28.9 °F 20.4 °F 7.3 °F 40% 30.39 in 10.0 mi NNE 9.2 mph - N/A   Clear
3:15 PM 29.1 °F 20.6 °F 8.4 °F 42% 30.39 in 10.0 mi NE 9.2 mph - N/A   Clear
3:35 PM 29.1 °F 20.6 °F 8.1 °F 41% 30.39 in 10.0 mi NE 9.2 mph - N/A   Clear
3:55 PM 28.9 °F 20.4 °F 8.2 °F 42% 30.38 in 10.0 mi NE 9.2 mph - N/A   Clear
4:15 PM 28.4 °F 19.1 °F 7.7 °F 42% 30.37 in 10.0 mi NE 10.4 mph - N/A   Clear
4:35 PM 28.0 °F 19.3 °F 8.4 °F 44% 30.36 in 10.0 mi NE 9.2 mph - N/A   Clear
4:55 PM 27.5 °F 21.1 °F 8.4 °F 45% 30.36 in 10.0 mi NNE 5.8 mph - N/A   Clear
5:15 PM 26.8 °F 18.5 °F 7.7 °F 45% 30.35 in 10.0 mi NNE 8.1 mph - N/A   Clear
5:35 PM 25.7 °F 20.1 °F 7.9 °F 47% 30.36 in 10.0 mi NE 4.6 mph - N/A   Clear
5:55 PM 25.5 °F 17.8 °F 8.2 °F 48% 30.34 in 10.0 mi NNE 6.9 mph - N/A   Clear
6:15 PM 24.1 °F 17.0 °F 9.1 °F 53% 30.36 in 10.0 mi NE 5.8 mph - N/A   Clear
6:35 PM 24.1 °F 18.2 °F 9.5 °F 54% 30.36 in 10.0 mi NE 4.6 mph - N/A   Clear
6:55 PM 23.9 °F 16.8 °F 10.0 °F 56% 30.35 in 10.0 mi NNE 5.8 mph - N/A   Clear
7:15 PM 23.5 °F 17.6 °F 9.3 °F 55% 30.36 in 10.0 mi NNE 4.6 mph - N/A   Clear
7:35 PM 23.9 °F 15.8 °F 9.1 °F 53% 30.35 in 10.0 mi NNE 6.9 mph - N/A   Clear
7:55 PM 23.0 °F 13.1 °F 8.4 °F 54% 30.35 in 10.0 mi NE 9.2 mph - N/A   Clear
8:15 PM 21.9 °F 12.5 °F 8.6 °F 57% 30.35 in 10.0 mi NNE 8.1 mph - N/A   Clear
8:35 PM 21.2 °F 10.9 °F 8.6 °F 58% 30.35 in 10.0 mi NNE 9.2 mph - N/A   Clear
8:55 PM 20.8 °F 11.2 °F 8.4 °F 59% 30.36 in 10.0 mi NNE 8.1 mph - N/A   Clear
9:15 PM 20.3 °F 11.5 °F 8.2 °F 60% 30.36 in 10.0 mi NNE 6.9 mph - N/A   Clear
9:35 PM 20.3 °F 11.5 °F 7.9 °F 59% 30.37 in 10.0 mi NNE 6.9 mph - N/A   Clear
9:55 PM 19.8 °F 10.8 °F 7.7 °F 60% 30.37 in 10.0 mi NNE 6.9 mph - N/A   Clear
10:15 PM 19.2 °F 11.3 °F 7.7 °F 61% 30.37 in 10.0 mi NNE 5.8 mph - N/A   Clear
10:35 PM 18.9 °F 12.1 °F 7.7 °F 62% 30.37 in 10.0 mi North 4.6 mph - N/A   Clear
10:55 PM 18.5 °F 11.7 °F 8.2 °F 64% 30.36 in 10.0 mi North 4.6 mph - N/A   Clear
11:15 PM 18.1 °F 10.0 °F 8.1 °F 65% 30.34 in 10.0 mi North 5.8 mph - N/A   Clear
11:35 PM 17.6 °F 10.7 °F 7.7 °F 65% 30.33 in 10.0 mi NNE 4.6 mph - N/A   Clear
11:55 PM 17.6 °F 8.2 °F 7.7 °F 65% 30.33 in 10.0 mi North 6.9 mph - N/A   Clear